EW1390 Weather Reports


time (UTC)temp
C
wind
direction
speed
KPH
gust
KPH
rain 1hr
cm
rain 24hr
cm
rain mn
cm
humidity
%
barometer
mb
20260831090016 12 263 0.0 0.0 0.00 0.00 0.00 71 1003.6
20260831084514 13 263 0.0 0.0 0.00 0.00 0.00 70 1003.6
20260831083013 13 263 0.0 0.0 0.00 0.00 0.00 69 1003.7
20260831081510 13 263 0.0 0.0 0.00 0.00 0.00 68 1003.8
20260831080007 13 263 0.0 0.0 0.00 0.00 0.00 67 1004.0
20260831074506 13 263 0.0 0.0 0.00 0.00 0.00 67 1004.0
20260831073006 14 263 0.0 0.0 0.00 0.00 0.00 66 1004.0
20260831071502 14 263 0.0 0.0 0.00 0.00 0.00 66 1004.0
20260831070059 14 263 0.0 0.0 0.00 0.00 0.00 65 1004.1
20260831064613 15 263 0.0 0.0 0.00 0.00 0.00 65 1004.3
20260831063105 15 263 0.0 0.0 0.00 0.00 0.00 64 1004.2
20260831061559 15 263 0.0 0.0 0.00 0.00 0.00 63 1004.2
20260831060105 15 263 0.0 0.0 0.00 0.00 0.00 62 1004.3
20260831054556 16 263 0.0 0.0 0.00 0.00 0.00 61 1004.4
20260831053056 16 263 0.0 0.0 0.00 0.00 0.00 60 1004.4
20260831051604 16 263 0.0 0.0 0.00 0.00 0.00 58 1004.4
20260831050055 16 263 0.0 0.0 0.00 0.00 0.00 57 1004.4
20260831044554 17 263 0.0 0.0 0.00 0.00 0.00 57 1004.5
20260831043054 17 263 0.0 0.0 0.00 0.00 0.00 55 1004.4
20260831041552 18 263 0.0 0.0 0.00 0.00 0.00 54 1004.2
20260831040051 18 263 0.0 0.0 0.00 0.00 0.00 53 1004.1
20260831034551 19 263 0.0 0.0 0.00 0.00 0.00 51 1003.9
20260831033054 20 263 0.0 0.0 0.00 0.00 0.00 51 1003.7
20260831031549 20 263 0.0 0.0 0.00 0.00 0.00 51 1003.7
20260831030050 21 263 0.0 1.6 0.00 0.00 0.00 50 1003.6
20260831024556 22 263 0.0 0.0 0.00 0.00 0.00 48 1003.5
20260831023056 23 263 0.0 3.2 0.00 0.00 0.00 45 1003.4
20260831021547 24 263 0.0 3.2 0.00 0.00 0.00 43 1003.4
20260831020108 25 263 0.0 0.0 0.00 0.00 0.00 40 1003.5
20260831014546 26 263 0.0 1.6 0.00 0.00 0.00 38 1003.5
20260831013045 27 263 0.0 3.2 0.00 0.00 0.00 35 1003.5
20260831011556 28 263 0.0 0.0 0.00 0.00 0.00 33 1003.5
20260831010045 28 263 0.0 6.4 0.00 0.00 0.00 29 1003.5
20260831004548 30 263 0.0 3.2 0.00 0.00 0.00 30 1003.6
20260831003042 29 263 0.0 4.8 0.00 0.00 0.00 30 1003.6
20260831001542 30 223 3.2 6.4 0.00 0.00 0.00 28 1003.6
20260831000041 30 214 0.0 8.0 0.00 0.00 0.00 28 1003.6
20260830234639 30 38 0.0 6.4 0.00 0.00 0.00 28 1003.7
20260830233040 30 195 0.0 6.4 0.00 0.00 0.00 29 1003.9
20260830231537 30 190 0.0 6.4 0.00 0.00 0.00 29 1003.9
20260830230033 30 225 1.6 9.7 0.00 0.00 0.00 29 1004.0
20260830224535 30 175 0.0 4.8 0.00 0.00 0.00 29 1004.1
20260830223031 30 292 0.0 8.0 0.00 0.00 0.00 29 1004.2
20260830221529 30 107 0.0 6.4 0.00 0.00 0.00 28 1004.4
20260830220025 30 107 0.0 8.0 0.00 0.00 0.00 29 1004.5
20260830214523 30 221 3.2 9.7 0.00 0.00 0.00 28 1004.8
20260830213035 30 229 0.0 11.3 0.00 0.00 0.00 29 1004.9
20260830211534 30 277 1.6 11.3 0.00 0.00 0.00 29 1005.1
20260830210044 30 189 1.6 6.4 0.00 0.00 0.00 28 1005.0
20260830204520 30 126 0.0 8.0 0.00 0.00 0.00 28 1005.0
20260830203030 30 201 3.2 16.1 0.00 0.00 0.00 28 1005.1
20260830201517 30 125 0.0 6.4 0.00 0.00 0.00 28 1005.0
20260830200015 29 311 0.0 12.9 0.00 0.00 0.00 29 1005.0
20260830194514 29 134 1.6 11.3 0.00 0.00 0.00 29 1005.2
20260830193018 29 252 3.2 6.4 0.00 0.00 0.00 29 1005.3
20260830191517 28 125 1.6 9.7 0.00 0.00 0.00 29 1005.4
20260830190008 28 235 0.0 8.0 0.00 0.00 0.00 30 1005.4
20260830184508 28 262 1.6 9.7 0.00 0.00 0.00 31 1005.5
20260830183004 28 201 1.6 6.4 0.00 0.00 0.00 30 1005.7
20260830181503 28 109 1.6 4.8 0.00 0.00 0.00 29 1005.6
20260830180059 27 205 0.0 9.7 0.00 0.00 0.00 31 1005.6
20260830174600 27 247 0.0 3.2 0.00 0.00 0.00 35 1005.5
20260830173051 26 247 0.0 4.8 0.00 0.00 0.00 37 1005.5
20260830171546 23 247 0.0 3.2 0.00 0.00 0.00 44 1005.4
20260830170042 21 247 0.0 3.2 0.00 0.00 0.00 56 1005.2
20260830164541 18 247 0.0 0.0 0.00 0.00 0.00 71 1005.4
20260830163032 17 247 0.0 1.6 0.00 0.00 0.00 77 1005.3
20260830161534 15 247 0.0 0.0 0.00 0.00 0.00 79 1005.4
20260830160023 14 247 0.0 0.0 0.00 0.00 0.00 80 1005.4
20260830154525 13 247 0.0 0.0 0.00 0.00 0.00 80 1005.5
20260830153022 12 247 0.0 0.0 0.00 0.00 0.00 80 1005.4
20260830151517 12 247 0.0 0.0 0.00 0.00 0.00 80 1005.6
20260830150016 11 247 0.0 0.0 0.00 0.00 0.00 79 1005.5
20260830144515 11 247 0.0 0.0 0.00 0.00 0.00 79 1005.6
20260830143023 11 247 0.0 0.0 0.00 0.00 0.00 79 1005.6
20260830141516 11 247 0.0 0.0 0.00 0.00 0.00 79 1005.5
20260830140016 11 247 0.0 0.0 0.00 0.00 0.00 78 1005.3
20260830134513 11 247 0.0 0.0 0.00 0.00 0.00 78 1005.1
20260830133010 11 247 0.0 0.0 0.00 0.00 0.00 78 1004.9
20260830131509 11 247 0.0 1.6 0.00 0.00 0.00 78 1004.9
20260830130008 11 247 0.0 0.0 0.00 0.00 0.00 78 1004.9
20260830124509 11 247 0.0 0.0 0.00 0.00 0.00 78 1004.9
20260830123006 11 247 0.0 0.0 0.00 0.00 0.00 77 1004.8
20260830121504 11 247 0.0 0.0 0.00 0.00 0.00 76 1004.7
20260830120004 11 247 0.0 0.0 0.00 0.00 0.00 76 1004.7
20260830114503 11 247 0.0 1.6 0.00 0.00 0.00 76 1004.7
20260830113002 11 247 0.0 0.0 0.00 0.00 0.00 76 1004.8
20260830111601 11 247 0.0 0.0 0.00 0.00 0.00 75 1004.9
20260830110059 11 247 0.0 0.0 0.00 0.00 0.00 75 1004.8
20260830104559 11 247 0.0 0.0 0.00 0.00 0.00 74 1004.7
20260830103057 11 247 0.0 0.0 0.00 0.00 0.00 74 1004.8
20260830101605 12 247 0.0 0.0 0.00 0.00 0.00 73 1004.8
20260830100054 12 247 0.0 0.0 0.00 0.00 0.00 73 1004.8
20260830094552 12 247 0.0 0.0 0.00 0.00 0.00 72 1004.8
20260830093050 12 247 0.0 0.0 0.00 0.00 0.00 71 1004.8
20260830091548 12 247 0.0 1.6 0.00 0.00 0.00 71 1004.9